ELECTRON R/B (44074 NORAD) Tracking and Keplerian Element Data

This shows tracking and keplerian element data for the satellite.

Feedback or suggestion? Click here.




ElementValue
Catalog44074
NameELECTRON R/B
Epoch Orbit355
Epoch Day110.91158782
Epoch Year2019
RAAN315.319
Inclination39.5148
Eccentricity0.0011695
Argument of Perigee104.3691
Mean Anonmoly255.841
Mean Motion15.47342373
Decay Rate8.737E-05
L11 44074U 19016B 19110.91158782 .00008737 00000-0 17022-3 0 9999
L22 44074 39.5148 315.3190 0011695 104.3691 255.8410 15.47342373 3556

Live tracking and technical data element details for ELECTRON R/B (NORAD 44074). ELECTRON R/B can be tracked NOW for your location showing map with azimuth and elevation plus other details from your city location.

Track the satellite on the map from your city or location and see movement details for azimuth, elevation, latitude, longitude, range, height, and movement on the map or in text.







IsCatalogInMostPopularTable: catalog: 44074, numindb: 4
Update: records affected: 1



GetName: 44074 ELECTRON R/B

Hit Count: updated at: Tue, 23 Apr 2019 02:42:39 GMT